DMSP 5D-2 F13 DEB, 40402

Orbit data source: Space-Track

DMSP 5D-2 F13 DEB, 40402 is space debris in SSO originally from a launch on Fri, 24 Mar 1995 UTC launched from the Air Force Western Test Range (AFWTR). Debris objects in space refer to the collection of defunct objects orbiting the Earth. Examples of debris include non-operational satellites, rocket bodies, and fragments generated from explosions, collisions, or faulty payload assembly.

Loading next visibility...
Identifier
40402, 1995-015P
Orbit
SSO
Country
Flag of USUS
Related business
Manufacturer
Unknown
Mission
Spacecraft
Bus & Motor
Unknown
Mass
Unknown
Launch date (UTC)
1995-03-24 (31 years ago)
Launch vehicle
Unknown
Launch site
Air Force Western Test Range (AFWTR)
Object type
Payload
Rocket body
Debris
Shape & HBR
Unknown shape, 0.1 m
Radar Cross Section
Small (<0.1 m²)

Expand to show TLE details & history
Last TLE update: 7 hours ago

TLE from 7 hours ago
0 DMSP 5D-2 F13 DEB
1 40402U 95015P   26121.53809792  .00001450  00000-0  52386-3 0  9992
2 40402  98.6562 145.8715 0143862 176.5362 183.6851 14.29459669580339
Epoch: 2026-05-01T12:54Z
TLE epoch observation values (Epoch: 2026-05-01T12:54:51.660Z)
Latitude
-0.00001°
Longitude
92.68733°
Altitude
899.454 km
Speed
7.349 km/s
True Right ascension
09h 43m 29s
True Declination
0° 00' 00"
Sunlit
Object was in daylight at epoch
Visualization orbit readout
Latitude
Unknown
Longitude
Unknown
Altitude
Unknown
Speed
Unknown
Apparent Right ascension
Unknown
Apparent Declination
Unknown
Sunlit
N/A
Visualization observer readout
Local Sidereal Time
03:45:42
Azimuth
Unknown
Elevation
Unknown
Doppler factor
Unknown
Orbital elements
Apogee altitude
893.812 km
Perigee altitude
687.548 km
Semi-major axis
7,168.817 km
Eccentricity
0.01439
Inclination
98.6562°
RAAN
145.8715°
Arg. of periapsis
176.5362°
True anomaly
183.58101°
Mean anomaly
183.6851°
Eccentric anomaly
183.63287°
Mean motion
3.57579 °/min
Orbital period
100.68 mins
BSTAR
0.00052386
Loading maneuver chart data...
Computing Atmospheric mass density...

Documentation

Showing up to 5 results
|